CARTOSAT-2D

Last updated on Wed Jul 16 2025 00:02:31 GMT+0000 (Coordinated Universal Time)

1 41948U 17008A 25196.59459450 .00003633 00000+0 17546-3 0 9996 2 41948 97.4592 256.1568 0004061 350.6549 9.4609 15.19277232466474
UTC large
Height (km)
Speed (km/s)
/
Latitude / Longitude
Inclination (degrees)
Orbital Period (minutes)
Azimuth
Elevation
Range (km)
Doppler Factor

Next 0 passes for location: London (51.5072 / 0.1276)

Sorry there are no passes over London.